Wetterdaten: Montag, 20.02.2012
Datum Zeit Temp. a Sch. Temp. a Son. Temp. a Bod. Feuchte a. Luftdruck Regen Wind Richtung Richtung Sonnenschein Helligkeit Taupunkt Windchill
20.02.2012 00:02 -0,2 C 0,8 C -1,2 C 74 % 1027 hPa 0,0 l/m 0,1 m/s (0 Bft) W-SW 240 0 min 0 lux -4,3 C -0,2 C
20.02.2012 00:07 -0,3 C 0,8 C -0,9 C 75 % 1027 hPa 0,0 l/m 0,9 m/s (1 Bft) W-SW 240 0 min 0 lux -4,2 C -0,3 C
20.02.2012 00:12 -0,1 C 0,8 C -0,8 C 75 % 1027 hPa 0,0 l/m 1,8 m/s (2 Bft) W-SW22.5 245 0 min 0 lux -4,0 C -0,2 C
20.02.2012 00:17 -0,1 C 0,8 C -0,9 C 75 % 1027 hPa 0,0 l/m 1,3 m/s (1 Bft) W-SW22.5 240 0 min 0 lux -4,0 C -0,1 C
20.02.2012 00:22 0,0 C 0,7 C -0,9 C 75 % 1027 hPa 0,0 l/m 1,4 m/s (1 Bft) W-SW 250 0 min 0 lux -3,9 C 0,0 C
20.02.2012 00:27 0,0 C 0,7 C -0,9 C 75 % 1027 hPa 0,0 l/m 1,2 m/s (1 Bft) W22.5 260 0 min 0 lux -3,9 C 0,0 C
20.02.2012 00:32 -0,1 C 0,7 C -1,1 C 75 % 1027 hPa 0,0 l/m 2,3 m/s (2 Bft) W-SW22.5 255 0 min 0 lux -4,0 C -2,0 C
20.02.2012 00:37 -0,1 C 0,6 C -1,2 C 74 % 1027 hPa 0,0 l/m 1,9 m/s (2 Bft) W-SW22.5 245 0 min 0 lux -4,2 C -0,7 C
20.02.2012 00:42 -0,3 C 0,6 C -1,2 C 74 % 1028 hPa 0,0 l/m 0,2 m/s (0 Bft) W-SW 240 0 min 0 lux -4,4 C -0,3 C
20.02.2012 00:47 -0,4 C 0,5 C -1,3 C 74 % 1028 hPa 0,0 l/m 0,1 m/s (0 Bft) W-SW 240 0 min 0 lux -4,5 C -0,4 C
20.02.2012 00:52 -0,5 C 0,4 C -1,6 C 74 % 1028 hPa 0,0 l/m 0,1 m/s (0 Bft) W-SW 240 0 min 0 lux -4,5 C -0,5 C
20.02.2012 00:57 -0,7 C 0,3 C -1,6 C 74 % 1028 hPa 0,0 l/m 1,7 m/s (2 Bft) W-SW22.5 240 0 min 0 lux -4,7 C -0,7 C
20.02.2012 01:02 -0,7 C 0,3 C -1,2 C 74 % 1028 hPa 0,0 l/m 1,9 m/s (2 Bft) W-SW22.5 240 0 min 0 lux -4,7 C -1,2 C
20.02.2012 01:07 -0,6 C 0,3 C -1,3 C 75 % 1028 hPa 0,0 l/m 2,5 m/s (2 Bft) W-SW22.5 245 0 min 0 lux -4,5 C -3,2 C
20.02.2012 01:12 -0,5 C 0,3 C -1,1 C 75 % 1028 hPa 0,0 l/m 1,6 m/s (1 Bft) W-SW22.5 250 0 min 0 lux -4,4 C -0,5 C
20.02.2012 01:16 -0,4 C 0,3 C -1,0 C 75 % 1028 hPa 0,0 l/m 1,9 m/s (2 Bft) W22.5 275 0 min 0 lux -4,3 C -0,7 C
20.02.2012 01:21 -0,3 C 0,3 C -1,0 C 75 % 1028 hPa 0,0 l/m 1,5 m/s (1 Bft) W-SW 255 0 min 0 lux -4,2 C -0,3 C
20.02.2012 01:26 -0,3 C 0,4 C -1,1 C 75 % 1028 hPa 0,0 l/m 2,9 m/s (2 Bft) SW22.5 230 0 min 0 lux -4,2 C -4,1 C
20.02.2012 01:31 -0,5 C 0,3 C -1,4 C 75 % 1028 hPa 0,0 l/m 2,1 m/s (2 Bft) W-SW22.5 250 0 min 0 lux -4,4 C -1,6 C
20.02.2012 01:36 -0,6 C 0,2 C -1,4 C 75 % 1028 hPa 0,0 l/m 0,3 m/s (1 Bft) SW 235 0 min 0 lux -4,5 C -0,6 C
20.02.2012 01:41 -0,6 C 0,2 C -1,2 C 75 % 1028 hPa 0,0 l/m 2,2 m/s (2 Bft) W-SW22.5 240 0 min 0 lux -4,5 C -2,2 C
20.02.2012 01:46 -0,5 C 0,3 C -1,1 C 75 % 1028 hPa 0,0 l/m 2,4 m/s (2 Bft) W-SW45 245 0 min 0 lux -4,4 C -2,9 C
20.02.2012 01:51 -0,4 C 0,3 C -1,1 C 76 % 1028 hPa 0,0 l/m 2,6 m/s (2 Bft) W-SW22.5 250 0 min 0 lux -4,1 C -3,5 C
20.02.2012 01:56 -0,4 C 0,3 C -1,4 C 75 % 1028 hPa 0,0 l/m 0,2 m/s (0 Bft) W-SW 240 0 min 0 lux -4,3 C -0,4 C
20.02.2012 02:01 -0,6 C 0,2 C -1,3 C 75 % 1028 hPa 0,0 l/m 1,9 m/s (2 Bft) W-SW22.5 250 0 min 0 lux -4,5 C -1,0 C
20.02.2012 02:06 -0,6 C 0,1 C -1,2 C 75 % 1028 hPa 0,0 l/m 1,8 m/s (2 Bft) W-SW22.5 255 0 min 0 lux -4,5 C -0,8 C
20.02.2012 02:11 -0,6 C 0,1 C -1,2 C 75 % 1028 hPa 0,0 l/m 0,9 m/s (1 Bft) W-SW 245 0 min 0 lux -4,5 C -0,6 C
20.02.2012 02:16 -0,7 C 0,1 C -1,2 C 75 % 1028 hPa 0,0 l/m 1,8 m/s (2 Bft) W-SW22.5 240 0 min 0 lux -4,6 C -0,7 C
20.02.2012 02:21 -0,7 C 0,1 C -1,2 C 76 % 1028 hPa 0,0 l/m 1,9 m/s (2 Bft) W-SW22.5 245 0 min 0 lux -4,4 C -1,3 C
20.02.2012 02:26 -0,7 C 0,1 C -1,2 C 76 % 1029 hPa 0,0 l/m 1,7 m/s (2 Bft) W-SW22.5 245 0 min 0 lux -4,4 C -0,7 C
20.02.2012 02:31 -0,7 C 0,0 C -1,7 C 76 % 1029 hPa 0,0 l/m 0,5 m/s (1 Bft) SW 225 0 min 0 lux -4,4 C -0,7 C
20.02.2012 02:36 -1,0 C -0,2 C -1,9 C 75 % 1029 hPa 0,0 l/m 0,1 m/s (0 Bft) SW 225 0 min 0 lux -4,9 C -1,0 C
20.02.2012 02:41 -1,3 C -0,3 C -1,9 C 75 % 1029 hPa 0,0 l/m 0,3 m/s (0 Bft) SW 225 0 min 0 lux -5,1 C -1,3 C
20.02.2012 02:46 -1,4 C -0,5 C -1,9 C 75 % 1029 hPa 0,0 l/m 2,0 m/s (2 Bft) W-SW22.5 240 0 min 0 lux -5,2 C -2,3 C
20.02.2012 02:51 -1,4 C -0,6 C -1,9 C 75 % 1029 hPa 0,0 l/m 1,2 m/s (1 Bft) SW 230 0 min 0 lux -5,2 C -1,4 C
20.02.2012 02:56 -1,5 C -0,7 C -1,9 C 75 % 1029 hPa 0,0 l/m 1,4 m/s (1 Bft) W-SW22.5 240 0 min 0 lux -5,3 C -1,5 C
20.02.2012 03:01 -1,5 C -0,7 C -1,9 C 75 % 1029 hPa 0,0 l/m 2,0 m/s (2 Bft) W-SW22.5 240 0 min 0 lux -5,3 C -2,5 C
20.02.2012 03:06 -1,6 C -0,9 C -2,0 C 76 % 1029 hPa 0,0 l/m 1,7 m/s (2 Bft) W-SW 250 0 min 0 lux -5,3 C -1,6 C
20.02.2012 03:11 -1,7 C -0,9 C -2,0 C 76 % 1029 hPa 0,0 l/m 1,5 m/s (1 Bft) W-SW22.5 245 0 min 0 lux -5,4 C -1,7 C
20.02.2012 03:16 -1,8 C -1,0 C -2,1 C 76 % 1029 hPa 0,0 l/m 1,0 m/s (1 Bft) W-SW22.5 240 0 min 0 lux -5,5 C -1,8 C
20.02.2012 03:21 -1,8 C -1,1 C -2,0 C 76 % 1029 hPa 0,0 l/m 2,6 m/s (2 Bft) W-SW22.5 255 0 min 0 lux -5,5 C -4,8 C
20.02.2012 03:26 -1,9 C -1,2 C -2,1 C 76 % 1029 hPa 0,0 l/m 1,9 m/s (2 Bft) W-SW22.5 240 0 min 0 lux -5,6 C -2,2 C
20.02.2012 03:31 -1,9 C -1,2 C -2,1 C 77 % 1029 hPa 0,0 l/m 1,8 m/s (2 Bft) SW 235 0 min 0 lux -5,4 C -2,0 C
20.02.2012 03:36 -1,9 C -1,3 C -2,1 C 77 % 1029 hPa 0,0 l/m 0,2 m/s (0 Bft) W-SW22.5 250 0 min 0 lux -5,4 C -1,9 C
20.02.2012 03:41 -2,0 C -1,3 C -2,1 C 77 % 1029 hPa 0,0 l/m 0,0 m/s (0 Bft) W-SW 245 0 min 0 lux -5,5 C -2,0 C
20.02.2012 03:46 -2,0 C -1,5 C -2,1 C 77 % 1029 hPa 0,0 l/m 1,7 m/s (2 Bft) W-SW 250 0 min 0 lux -5,5 C -2,0 C
20.02.2012 03:51 -2,0 C -1,5 C -2,2 C 77 % 1029 hPa 0,0 l/m 0,4 m/s (1 Bft) W-SW22.5 250 0 min 0 lux -5,5 C -2,0 C
20.02.2012 03:56 -2,1 C -1,5 C -2,2 C 77 % 1029 hPa 0,0 l/m 1,6 m/s (1 Bft) W-SW 240 0 min 0 lux -5,6 C -2,1 C
20.02.2012 04:01 -2,3 C -1,6 C -2,4 C 77 % 1029 hPa 0,0 l/m 1,8 m/s (2 Bft) W-SW 240 0 min 0 lux -5,8 C -2,3 C
20.02.2012 04:06 -2,3 C -1,6 C -2,4 C 77 % 1029 hPa 0,0 l/m 0,1 m/s (0 Bft) W22.5 265 0 min 0 lux -5,8 C -2,3 C
20.02.2012 04:12 -2,4 C -1,8 C -2,7 C 77 % 1029 hPa 0,0 l/m 0,0 m/s (0 Bft) W 275 0 min 0 lux -5,9 C -2,4 C
20.02.2012 04:17 -2,8 C -1,9 C -2,7 C 76 % 1029 hPa 0,0 l/m 0,2 m/s (0 Bft) W22.5 265 0 min 0 lux -6,4 C -2,8 C
20.02.2012 04:22 -2,8 C -2,0 C -2,9 C 76 % 1029 hPa 0,0 l/m 0,0 m/s (0 Bft) W-SW 250 0 min 0 lux -6,4 C -2,8 C
20.02.2012 04:27 -2,8 C -2,1 C -2,7 C 76 % 1029 hPa 0,0 l/m 0,0 m/s (0 Bft) W-SW 250 0 min 0 lux -6,4 C -2,8 C
20.02.2012 04:32 -2,7 C -2,1 C -2,6 C 76 % 1029 hPa 0,0 l/m 0,1 m/s (0 Bft) W-SW 245 0 min 0 lux -6,3 C -2,7 C
20.02.2012 04:37 -2,7 C -2,1 C -2,5 C 77 % 1029 hPa 0,0 l/m 0,1 m/s (0 Bft) W-SW22.5 250 0 min 0 lux -6,2 C -2,7 C
20.02.2012 04:42 -2,7 C -2,1 C -2,5 C 77 % 1029 hPa 0,0 l/m 0,0 m/s (0 Bft) W-SW 250 0 min 0 lux -6,2 C -2,7 C
20.02.2012 04:47 -3,0 C -2,2 C -2,9 C 76 % 1029 hPa 0,0 l/m 0,0 m/s (0 Bft) W-SW 250 0 min 0 lux -6,6 C -3,0 C
20.02.2012 04:52 -3,1 C -2,2 C -2,9 C 76 % 1029 hPa 0,0 l/m 0,0 m/s (0 Bft) W-SW 250 0 min 0 lux -6,7 C -3,1 C
20.02.2012 04:57 -3,2 C -2,3 C -3,0 C 76 % 1029 hPa 0,0 l/m 0,0 m/s (0 Bft) W-SW 245 0 min 0 lux -6,8 C -3,2 C
20.02.2012 05:02 -3,2 C -2,4 C -3,0 C 76 % 1030 hPa 0,0 l/m 0,0 m/s (0 Bft) W-SW 250 0 min 0 lux -6,8 C -3,2 C
20.02.2012 05:07 -3,3 C -2,5 C -2,9 C 75 % 1030 hPa 0,0 l/m 0,0 m/s (0 Bft) W-SW 245 0 min 0 lux -7,1 C -3,3 C
20.02.2012 05:12 -3,3 C -2,6 C -3,2 C 75 % 1030 hPa 0,0 l/m 0,0 m/s (0 Bft) W-SW 250 0 min 0 lux -7,1 C -3,3 C
20.02.2012 05:17 -3,3 C -2,7 C -3,1 C 76 % 1030 hPa 0,0 l/m 0,0 m/s (0 Bft) W-SW 250 0 min 0 lux -6,9 C -3,3 C
20.02.2012 05:22 -3,1 C -2,6 C -2,7 C 76 % 1030 hPa 0,0 l/m 0,0 m/s (0 Bft) W45 275 0 min 0 lux -6,7 C -3,1 C
20.02.2012 05:27 -2,8 C -2,5 C -2,8 C 76 % 1030 hPa 0,0 l/m 0,0 m/s (0 Bft) W22.5 280 0 min 0 lux -6,4 C -2,8 C
20.02.2012 05:32 -2,6 C -2,4 C -2,6 C 77 % 1030 hPa 0,0 l/m 0,0 m/s (0 Bft) W 265 0 min 0 lux -6,1 C -2,6 C
20.02.2012 05:37 -2,4 C -2,4 C -2,6 C 77 % 1030 hPa 0,0 l/m 0,1 m/s (0 Bft) W 265 0 min 0 lux -5,9 C -2,4 C
20.02.2012 05:42 -2,4 C -2,3 C -2,6 C 77 % 1030 hPa 0,0 l/m 2,1 m/s (2 Bft) W-SW22.5 240 0 min 0 lux -5,9 C -3,7 C
20.02.2012 05:47 -2,4 C -2,3 C -2,7 C 77 % 1030 hPa 0,0 l/m 0,2 m/s (0 Bft) SW 235 0 min 0 lux -5,9 C -2,4 C
20.02.2012 05:52 -2,4 C -2,3 C -2,6 C 77 % 1030 hPa 0,0 l/m 0,1 m/s (0 Bft) W-SW 255 0 min 0 lux -5,9 C -2,4 C
20.02.2012 05:57 -2,3 C -2,3 C -2,5 C 77 % 1030 hPa 0,0 l/m 0,1 m/s (0 Bft) W-SW 255 0 min 0 lux -5,8 C -2,3 C
20.02.2012 06:02 -2,3 C -2,1 C -2,6 C 77 % 1030 hPa 0,0 l/m 0,0 m/s (0 Bft) W-SW 255 0 min 0 lux -5,8 C -2,3 C
20.02.2012 06:07 -2,4 C -2,1 C -2,6 C 77 % 1031 hPa 0,0 l/m 0,3 m/s (0 Bft) W-SW22.5 245 0 min 0 lux -5,9 C -2,4 C
20.02.2012 06:12 -2,4 C -2,1 C -2,4 C 77 % 1031 hPa 0,0 l/m 0,8 m/s (1 Bft) SW 235 0 min 0 lux -5,9 C -2,4 C
20.02.2012 06:17 -2,4 C -2,2 C -2,6 C 77 % 1031 hPa 0,0 l/m 0,2 m/s (0 Bft) SW 235 0 min 0 lux -5,9 C -2,4 C
20.02.2012 06:22 -2,5 C -2,2 C -2,7 C 77 % 1031 hPa 0,0 l/m 0,2 m/s (0 Bft) SW 235 0 min 0 lux -6,0 C -2,5 C
20.02.2012 06:27 -2,5 C -2,3 C -2,8 C 77 % 1031 hPa 0,0 l/m 0,9 m/s (1 Bft) SW 235 0 min 0 lux -6,0 C -2,5 C
20.02.2012 06:32 -2,6 C -2,3 C -2,8 C 77 % 1031 hPa 0,0 l/m 1,6 m/s (2 Bft) W-SW22.5 245 0 min 0 lux -6,1 C -2,6 C
20.02.2012 06:37 -2,7 C -2,3 C -3,3 C 77 % 1031 hPa 0,0 l/m 1,1 m/s (1 Bft) W22.5 260 0 min 0 lux -6,2 C -2,7 C
20.02.2012 06:42 -2,9 C -2,4 C -3,3 C 77 % 1031 hPa 0,0 l/m 0,0 m/s (0 Bft) W-SW 255 0 min 0 lux -6,4 C -2,9 C
20.02.2012 06:47 -3,3 C -2,5 C -3,7 C 76 % 1031 hPa 0,0 l/m 0,0 m/s (0 Bft) W 260 0 min 0 lux -6,9 C -3,3 C
20.02.2012 06:52 -3,4 C -2,7 C -3,7 C 76 % 1031 hPa 0,0 l/m 0,0 m/s (0 Bft) W-SW 255 0 min 0 lux -7,0 C -3,4 C
20.02.2012 06:57 -3,7 C -2,7 C -3,6 C 76 % 1031 hPa 0,0 l/m 0,0 m/s (0 Bft) W-SW 255 0 min 0 lux -7,3 C -3,7 C
20.02.2012 07:02 -3,8 C -2,9 C -3,6 C 76 % 1031 hPa 0,0 l/m 0,0 m/s (0 Bft) W-SW 255 0 min 0 lux -7,4 C -3,8 C
20.02.2012 07:07 -3,8 C -3,0 C -3,6 C 76 % 1031 hPa 0,0 l/m 0,0 m/s (0 Bft) W 260 0 min 0 lux -7,4 C -3,8 C
20.02.2012 07:12 -3,9 C -3,0 C -3,6 C 75 % 1031 hPa 0,0 l/m 0,0 m/s (0 Bft) W 260 0 min 0 lux -7,7 C -3,9 C
20.02.2012 07:17 -4,0 C -3,1 C -3,6 C 75 % 1031 hPa 0,0 l/m 0,0 m/s (0 Bft) W 260 0 min 88 lux -7,8 C -4,0 C
20.02.2012 07:22 -3,9 C -3,1 C -3,5 C 76 % 1031 hPa 0,0 l/m 0,1 m/s (0 Bft) W-SW 255 0 min 190 lux -7,5 C -3,9 C
20.02.2012 07:27 -3,9 C -3,2 C -3,4 C 76 % 1031 hPa 0,0 l/m 0,0 m/s (0 Bft) W 260 0 min 328 lux -7,5 C -3,9 C
20.02.2012 07:32 -3,8 C -3,2 C -3,4 C 76 % 1031 hPa 0,0 l/m 0,0 m/s (0 Bft) W 260 0 min 533 lux -7,4 C -3,8 C
20.02.2012 07:37 -3,8 C -3,2 C -3,5 C 76 % 1031 hPa 0,0 l/m 0,0 m/s (0 Bft) W 260 0 min 789 lux -7,4 C -3,8 C
20.02.2012 07:42 -3,8 C -3,2 C -3,3 C 76 % 1031 hPa 0,0 l/m 0,0 m/s (0 Bft) W 260 0 min 906 lux -7,4 C -3,8 C
20.02.2012 07:46 -3,7 C -3,2 C -3,1 C 76 % 1031 hPa 0,0 l/m 0,0 m/s (0 Bft) W22.5 275 0 min 1,44 klux -7,3 C -3,7 C
20.02.2012 07:51 -3,4 C -3,1 C -3,0 C 76 % 1031 hPa 0,0 l/m 0,0 m/s (0 Bft) W-NW 290 0 min 1,72 klux -7,0 C -3,4 C
20.02.2012 07:56 -3,3 C -3,1 C -2,8 C 76 % 1031 hPa 0,0 l/m 0,0 m/s (0 Bft) W-NW 290 0 min 2,18 klux -6,9 C -3,3 C
20.02.2012 08:01 -3,1 C -3,0 C -2,7 C 77 % 1031 hPa 0,0 l/m 0,1 m/s (0 Bft) W-SW 250 0 min 2,35 klux -6,5 C -3,1 C
20.02.2012 08:06 -2,9 C -2,9 C -2,7 C 77 % 1032 hPa 0,0 l/m 0,0 m/s (0 Bft) W-SW 255 0 min 2,55 klux -6,4 C -2,9 C
20.02.2012 08:11 -2,9 C -2,8 C -2,8 C 77 % 1032 hPa 0,0 l/m 0,0 m/s (0 Bft) W-SW 255 0 min 2,78 klux -6,4 C -2,9 C
20.02.2012 08:16 -2,7 C -2,8 C -2,7 C 77 % 1032 hPa 0,0 l/m 0,0 m/s (0 Bft) W-SW 255 0 min 3,54 klux -6,2 C -2,7 C
20.02.2012 08:21 -2,8 C -2,8 C -3,0 C 77 % 1032 hPa 0,0 l/m 0,0 m/s (0 Bft) W-SW 255 0 min 3,65 klux -6,3 C -2,8 C
20.02.2012 08:26 -3,0 C -2,7 C -3,2 C 76 % 1032 hPa 0,0 l/m 0,0 m/s (0 Bft) W-SW 255 0 min 3,77 klux -6,6 C -3,0 C
20.02.2012 08:31 -3,1 C -2,7 C -3,3 C 76 % 1032 hPa 0,0 l/m 0,0 m/s (0 Bft) W-SW 255 0 min 4,21 klux -6,7 C -3,1 C
20.02.2012 08:36 -3,1 C -2,7 C -3,2 C 76 % 1032 hPa 0,0 l/m 0,0 m/s (0 Bft) W-SW 255 0 min 4,51 klux -6,7 C -3,1 C
20.02.2012 08:41 -3,0 C -2,7 C -2,9 C 76 % 1032 hPa 0,0 l/m 0,0 m/s (0 Bft) W-SW 255 0 min 6,58 klux -6,6 C -3,0 C
20.02.2012 08:46 -2,9 C -2,6 C -2,7 C 76 % 1032 hPa 0,0 l/m 0,0 m/s (0 Bft) W-SW 255 0 min 7,52 klux -6,5 C -2,9 C
20.02.2012 08:51 -2,7 C -2,4 C -2,6 C 76 % 1032 hPa 0,0 l/m 0,0 m/s (0 Bft) W-SW 255 0 min 13,8 klux -6,3 C -2,7 C
20.02.2012 08:56 -1,9 C -2,4 C -1,9 C 77 % 1032 hPa 0,0 l/m 0,0 m/s (0 Bft) W-SW 255 5 min 21,5 klux -5,4 C -1,9 C
20.02.2012 09:01 -1,9 C -2,2 C -1,9 C 77 % 1032 hPa 0,0 l/m 0,0 m/s (0 Bft) W-SW 255 5 min 22,4 klux -5,4 C -1,9 C
20.02.2012 09:06 -1,2 C -2,1 C -2,0 C 77 % 1032 hPa 0,0 l/m 0,0 m/s (0 Bft) W-SW 255 5 min 23,4 klux -4,7 C -1,2 C
20.02.2012 09:11 -1,0 C -2,1 C -2,0 C 77 % 1032 hPa 0,0 l/m 0,0 m/s (0 Bft) W-SW 255 5 min 26,6 klux -4,5 C -1,0 C
20.02.2012 09:17 -0,8 C -2,0 C -1,9 C 77 % 1032 hPa 0,0 l/m 0,0 m/s (0 Bft) W-SW 255 6 min 29,2 klux -4,3 C -0,8 C
20.02.2012 09:22 -0,7 C -1,3 C -1,9 C 77 % 1032 hPa 0,0 l/m 0,0 m/s (0 Bft) W-SW 255 5 min 29,5 klux -4,2 C -0,7 C
20.02.2012 09:27 -0,6 C 0,0 C -1,7 C 77 % 1032 hPa 0,0 l/m 0,0 m/s (0 Bft) W-SW 255 5 min 30,5 klux -4,1 C -0,6 C
20.02.2012 09:32 -0,4 C 0,5 C -1,5 C 77 % 1033 hPa 0,0 l/m 0,2 m/s (0 Bft) W-SW 250 5 min 31,7 klux -3,9 C -0,4 C
20.02.2012 09:36 -0,2 C 1,9 C -1,5 C 77 % 1032 hPa 0,0 l/m 0,0 m/s (0 Bft) SW 230 4 min 34,0 klux -3,7 C -0,2 C
20.02.2012 09:41 0,1 C 3,2 C -1,2 C 77 % 1032 hPa 0,0 l/m 0,0 m/s (0 Bft) SW 230 5 min 35,5 klux -3,4 C 0,1 C
20.02.2012 09:46 0,6 C 3,9 C -0,7 C 77 % 1033 hPa 0,0 l/m 0,0 m/s (0 Bft) SW 225 5 min 40,3 klux -3,0 C 0,6 C
20.02.2012 09:52 1,0 C 5,1 C 0,2 C 77 % 1033 hPa 0,0 l/m 0,6 m/s (1 Bft) SW 220 6 min 46,1 klux -2,6 C 1,0 C
20.02.2012 09:57 2,0 C 6,0 C 0,3 C 76 % 1033 hPa 0,0 l/m 0,2 m/s (0 Bft) SW 220 5 min 45,2 klux -1,8 C 2,0 C
20.02.2012 10:02 2,3 C 6,0 C 0,3 C 75 % 1033 hPa 0,0 l/m 2,4 m/s (2 Bft) SW 220 5 min 43,7 klux -1,7 C 0,3 C
20.02.2012 10:07 2,4 C 6,3 C 0,3 C 74 % 1033 hPa 0,0 l/m 0,1 m/s (0 Bft) S-SW22.5 200 0 min 20,4 klux -1,7 C 2,4 C
20.02.2012 10:11 2,4 C 5,8 C 0,3 C 74 % 1033 hPa 0,0 l/m 0,9 m/s (1 Bft) S22.5 175 0 min 23,3 klux -1,7 C 2,4 C
20.02.2012 10:16 2,6 C 5,5 C 0,3 C 74 % 1033 hPa 0,0 l/m 0,0 m/s (0 Bft) S 170 0 min 19,5 klux -1,6 C 2,6 C
20.02.2012 10:21 2,6 C 5,3 C 0,3 C 74 % 1033 hPa 0,0 l/m 0,0 m/s (0 Bft) S 170 0 min 19,8 klux -1,6 C 2,6 C
20.02.2012 10:27 2,7 C 5,1 C 0,5 C 74 % 1033 hPa 0,0 l/m 0,0 m/s (0 Bft) S 170 0 min 21,4 klux -1,5 C 2,7 C
20.02.2012 10:32 2,7 C 4,8 C 0,5 C 73 % 1033 hPa 0,0 l/m 1,4 m/s (1 Bft) S-SW22.5 195 0 min 20,7 klux -1,6 C 2,7 C
20.02.2012 10:37 2,8 C 4,6 C 0,8 C 72 % 1033 hPa 0,0 l/m 0,1 m/s (0 Bft) S-SW 210 0 min 26,6 klux -1,7 C 2,8 C
20.02.2012 10:42 2,9 C 4,4 C 0,7 C 72 % 1033 hPa 0,0 l/m 0,1 m/s (0 Bft) SW 220 0 min 27,4 klux -1,6 C 2,9 C
20.02.2012 10:46 3,0 C 4,2 C 0,6 C 70 % 1033 hPa 0,0 l/m 0,2 m/s (0 Bft) SW22.5 225 0 min 26,3 klux -1,9 C 3,0 C
20.02.2012 10:52 3,3 C 4,3 C 1,2 C 68 % 1033 hPa 0,0 l/m 2,0 m/s (2 Bft) SW22.5 235 6 min 58,0 klux -2,0 C 2,5 C
20.02.2012 10:57 3,3 C 5,2 C 1,0 C 64 % 1033 hPa 0,0 l/m 2,6 m/s (2 Bft) W-SW22.5 240 0 min 28,5 klux -2,8 C 0,8 C
20.02.2012 11:02 2,7 C 4,9 C 0,9 C 62 % 1033 hPa 0,0 l/m 3,8 m/s (3 Bft) W-SW45 245 0 min 23,3 klux -3,8 C -2,8 C
20.02.2012 11:07 2,7 C 4,8 C 0,8 C 65 % 1033 hPa 0,0 l/m 0,4 m/s (1 Bft) SW22.5 235 0 min 19,4 klux -3,2 C 2,7 C
20.02.2012 11:12 2,6 C 4,7 C 0,7 C 64 % 1033 hPa 0,0 l/m 0,4 m/s (1 Bft) W-SW22.5 240 0 min 16,5 klux -3,5 C 2,6 C
20.02.2012 11:17 2,4 C 4,2 C 0,8 C 65 % 1033 hPa 0,0 l/m 0,0 m/s (0 Bft) NW22.5 310 0 min 18,1 klux -3,5 C 2,4 C
20.02.2012 11:22 2,7 C 4,1 C 0,9 C 66 % 1033 hPa 0,0 l/m 0,0 m/s (0 Bft) NW 305 0 min 19,6 klux -3,0 C 2,7 C
20.02.2012 11:27 2,7 C 3,9 C 0,7 C 66 % 1033 hPa 0,0 l/m 0,0 m/s (0 Bft) NW45 310 0 min 17,7 klux -3,0 C 2,7 C
20.02.2012 11:32 2,7 C 3,7 C 0,8 C 66 % 1033 hPa 0,0 l/m 0,0 m/s (0 Bft) W-NW22.5 285 0 min 17,8 klux -3,0 C 2,7 C
20.02.2012 11:37 2,5 C 3,4 C 0,8 C 64 % 1033 hPa 0,0 l/m 4,1 m/s (3 Bft) NW45 305 0 min 18,8 klux -3,6 C -3,7 C
20.02.2012 11:42 2,7 C 3,5 C 0,7 C 65 % 1033 hPa 0,0 l/m 0,0 m/s (0 Bft) W-NW22.5 300 0 min 23,8 klux -3,2 C 2,7 C
20.02.2012 11:47 2,8 C 3,5 C 1,3 C 65 % 1033 hPa 0,0 l/m 0,0 m/s (0 Bft) W-NW22.5 300 5 min 62,0 klux -3,1 C 2,8 C
20.02.2012 11:52 3,5 C 5,8 C 2,0 C 65 % 1033 hPa 0,0 l/m 0,0 m/s (0 Bft) N-NW 330 5 min 67,0 klux -2,4 C 3,5 C
20.02.2012 11:57 3,9 C 7,1 C 1,7 C 64 % 1033 hPa 0,0 l/m 0,0 m/s (0 Bft) N-NW 330 0 min 23,8 klux -2,3 C 3,9 C
20.02.2012 12:02 4,0 C 6,7 C 1,6 C 63 % 1033 hPa 0,0 l/m 1,6 m/s (1 Bft) S-SW22.5 210 0 min 23,2 klux -2,4 C 4,0 C
20.02.2012 12:07 3,6 C 6,2 C 1,2 C 61 % 1033 hPa 0,0 l/m 2,7 m/s (2 Bft) W45 280 0 min 22,8 klux -3,2 C 0,7 C
20.02.2012 12:12 3,2 C 6,2 C 1,7 C 58 % 1033 hPa 0,0 l/m 0,2 m/s (0 Bft) W22.5 270 5 min 63,1 klux -4,3 C 3,2 C
20.02.2012 12:17 3,9 C 6,7 C 2,1 C 60 % 1033 hPa 0,0 l/m 2,7 m/s (2 Bft) SW22.5 230 5 min 59,9 klux -3,1 C 1,2 C
20.02.2012 12:22 4,1 C 7,9 C 2,3 C 59 % 1033 hPa 0,0 l/m 0,3 m/s (1 Bft) S-SW 205 5 min 42,2 klux -3,2 C 4,1 C
20.02.2012 12:27 4,1 C 7,9 C 1,9 C 57 % 1033 hPa 0,0 l/m 2,2 m/s (2 Bft) SW22.5 230 0 min 28,4 klux -3,6 C 2,7 C
20.02.2012 12:32 4,0 C 8,0 C 1,9 C 56 % 1033 hPa 0,0 l/m 0,6 m/s (1 Bft) SW22.5 230 5 min 48,9 klux -4,0 C 4,0 C
20.02.2012 12:37 3,7 C 7,8 C 1,3 C 56 % 1033 hPa 0,0 l/m 2,1 m/s (2 Bft) W-SW45 250 0 min 26,3 klux -4,2 C 2,7 C
20.02.2012 12:42 3,3 C 7,2 C 1,4 C 56 % 1033 hPa 0,0 l/m 2,6 m/s (2 Bft) W-SW22.5 240 5 min 56,0 klux -4,6 C 0,7 C
20.02.2012 12:47 3,9 C 7,4 C 2,1 C 57 % 1033 hPa 0,0 l/m 0,4 m/s (1 Bft) SW 230 5 min 49,6 klux -3,8 C 3,9 C
20.02.2012 12:52 4,0 C 8,3 C 1,7 C 55 % 1033 hPa 0,0 l/m 2,1 m/s (2 Bft) SW22.5 235 5 min 67,4 klux -4,2 C 2,9 C
20.02.2012 12:57 4,6 C 8,6 C 2,5 C 57 % 1033 hPa 0,0 l/m 0,1 m/s (0 Bft) S-SW22.5 200 0 min 34,8 klux -3,2 C 4,6 C
20.02.2012 13:02 4,9 C 10,2 C 2,3 C 55 % 1033 hPa 0,0 l/m 2,0 m/s (2 Bft) S-SW45 210 5 min 60,7 klux -3,4 C 4,1 C
20.02.2012 13:06 4,9 C 10,2 C 2,7 C 55 % 1033 hPa 0,0 l/m 0,4 m/s (1 Bft) SW22.5 215 4 min 68,6 klux -3,4 C 4,9 C
20.02.2012 13:11 4,9 C 10,2 C 2,7 C 55 % 1033 hPa 0,0 l/m 0,4 m/s (1 Bft) SW22.5 215 5 min 68,6 klux -3,4 C 4,9 C
20.02.2012 13:16 4,8 C 9,6 C 2,8 C 53 % 1033 hPa 0,4 l/m 0,3 m/s (0 Bft) SW 220 0 min 36,2 klux -4,0 C 4,8 C
20.02.2012 13:21 4,6 C 8,8 C 2,6 C 53 % 1033 hPa 0,0 l/m 0,3 m/s (0 Bft) S45 175 0 min 21,9 klux -4,1 C 4,6 C
20.02.2012 13:26 4,6 C 8,8 C 2,4 C 54 % 1033 hPa 0,0 l/m 0,2 m/s (0 Bft) S-SW22.5 200 0 min 20,7 klux -3,9 C 4,6 C
20.02.2012 13:31 4,6 C 8,0 C 2,5 C 55 % 1033 hPa 0,0 l/m 1,1 m/s (1 Bft) S-SW 195 0 min 19,3 klux -3,6 C 4,6 C
20.02.2012 13:36 4,5 C 7,5 C 2,1 C 55 % 1033 hPa 0,0 l/m 1,3 m/s (1 Bft) S-SW22.5 210 0 min 17,1 klux -3,7 C 4,5 C
20.02.2012 13:41 4,3 C 7,1 C 2,1 C 55 % 1033 hPa 0,0 l/m 1,5 m/s (1 Bft) SW 230 0 min 16,8 klux -3,9 C 4,3 C
20.02.2012 13:46 4,3 C 6,7 C 2,0 C 54 % 1033 hPa 0,0 l/m 2,0 m/s (2 Bft) SW22.5 230 0 min 20,6 klux -4,2 C 3,6 C
20.02.2012 13:51 4,4 C 6,6 C 2,5 C 55 % 1033 hPa 0,0 l/m 0,1 m/s (0 Bft) S-SW22.5 210 0 min 28,7 klux -3,8 C 4,4 C
20.02.2012 13:56 4,7 C 7,2 C 2,8 C 54 % 1033 hPa 0,0 l/m 1,2 m/s (1 Bft) S-SO22.5 165 5 min 43,8 klux -3,8 C 4,7 C
20.02.2012 14:01 4,8 C 7,3 C 2,8 C 53 % 1033 hPa 0,0 l/m 0,4 m/s (1 Bft) S-SW45 195 5 min 47,7 klux -4,0 C 4,8 C
20.02.2012 14:06 5,0 C 7,5 C 2,8 C 52 % 1033 hPa 0,0 l/m 2,5 m/s (2 Bft) SW45 235 0 min 21,0 klux -4,0 C 2,7 C
20.02.2012 14:11 4,3 C 6,8 C 2,4 C 50 % 1033 hPa 0,0 l/m 2,5 m/s (2 Bft) SW45 235 0 min 16,1 klux -5,2 C 2,0 C
20.02.2012 14:16 4,2 C 6,5 C 2,4 C 51 % 1033 hPa 0,0 l/m 2,2 m/s (2 Bft) S45 185 0 min 14,5 klux -5,0 C 2,8 C
20.02.2012 14:21 3,9 C 6,1 C 2,1 C 52 % 1033 hPa 0,0 l/m 2,8 m/s (2 Bft) S-SW45 200 0 min 12,2 klux -5,0 C 0,7 C
20.02.2012 14:26 3,7 C 5,7 C 2,1 C 53 % 1033 hPa 0,0 l/m 1,2 m/s (1 Bft) SW 225 0 min 14,2 klux -5,0 C 3,7 C
20.02.2012 14:31 3,6 C 5,5 C 2,3 C 52 % 1033 hPa 0,0 l/m 2,6 m/s (2 Bft) SW22.5 225 0 min 18,0 klux -5,3 C 1,0 C
20.02.2012 14:36 3,6 C 5,3 C 2,6 C 52 % 1033 hPa 0,0 l/m 2,4 m/s (2 Bft) W-SW22.5 250 0 min 18,6 klux -5,3 C 1,5 C
20.02.2012 14:41 3,7 C 5,2 C 2,6 C 52 % 1033 hPa 0,0 l/m 2,5 m/s (2 Bft) SW22.5 230 0 min 17,6 klux -5,2 C 1,3 C
20.02.2012 14:46 3,7 C 5,0 C 2,4 C 52 % 1033 hPa 0,0 l/m 3,4 m/s (3 Bft) SW22.5 235 0 min 17,2 klux -5,2 C -1,0 C
20.02.2012 14:51 3,5 C 4,9 C 2,4 C 51 % 1033 hPa 0,0 l/m 3,9 m/s (3 Bft) W-SW22.5 245 0 min 20,4 klux -5,7 C -2,2 C
20.02.2012 14:56 3,6 C 5,0 C 2,5 C 52 % 1033 hPa 0,0 l/m 3,3 m/s (2 Bft) SW45 235 0 min 21,4 klux -5,3 C -0,7 C
20.02.2012 15:01 3,7 C 5,7 C 2,3 C 51 % 1033 hPa 0,0 l/m 3,4 m/s (3 Bft) W-SW22.5 250 5 min 29,9 klux -5,5 C -0,9 C
20.02.2012 15:06 3,9 C 6,1 C 2,6 C 51 % 1033 hPa 0,0 l/m 4,1 m/s (3 Bft) W-SW22.5 240 5 min 49,6 klux -5,3 C -2,2 C
20.02.2012 15:11 4,4 C 6,1 C 2,6 C 50 % 1033 hPa 0,0 l/m 2,9 m/s (2 Bft) SW45 230 0 min 19,6 klux -5,1 C 1,0 C
20.02.2012 15:16 4,6 C 7,8 C 2,5 C 50 % 1033 hPa 0,0 l/m 1,6 m/s (1 Bft) S-SW22.5 210 5 min 47,4 klux -4,9 C 4,6 C
20.02.2012 15:21 4,5 C 7,4 C 2,5 C 50 % 1033 hPa 0,0 l/m 2,7 m/s (2 Bft) SW45 215 5 min 47,5 klux -5,0 C 1,7 C
20.02.2012 15:26 4,6 C 7,8 C 2,5 C 51 % 1033 hPa 0,0 l/m 0,2 m/s (0 Bft) S-SO 160 0 min 19,4 klux -4,6 C 4,6 C
20.02.2012 15:31 4,3 C 7,2 C 2,5 C 48 % 1033 hPa 0,0 l/m 3,2 m/s (2 Bft) W-SW22.5 245 5 min 27,8 klux -5,7 C 0,3 C
20.02.2012 15:36 4,3 C 7,6 C 2,8 C 49 % 1033 hPa 0,0 l/m 3,9 m/s (3 Bft) SW22.5 230 5 min 47,4 klux -5,5 C -1,3 C
20.02.2012 15:41 4,8 C 8,4 C 2,7 C 48 % 1033 hPa 0,0 l/m 3,1 m/s (2 Bft) W-SW45 240 5 min 31,9 klux -5,3 C 1,0 C
20.02.2012 15:46 4,5 C 8,2 C 2,2 C 47 % 1033 hPa 0,0 l/m 3,3 m/s (2 Bft) W-SW45 250 5 min 40,3 klux -5,8 C 0,4 C
20.02.2012 15:52 4,6 C 9,2 C 2,5 C 47 % 1033 hPa 0,0 l/m 2,9 m/s (2 Bft) SW67.5 235 6 min 39,2 klux -5,7 C 1,2 C
20.02.2012 15:57 4,6 C 9,4 C 2,1 C 46 % 1032 hPa 0,0 l/m 3,4 m/s (2 Bft) W-SW45 240 5 min 37,2 klux -6,0 C 0,2 C
20.02.2012 16:02 4,8 C 9,4 C 2,1 C 48 % 1032 hPa 0,0 l/m 3,5 m/s (3 Bft) SW45 230 5 min 35,4 klux -5,3 C 0,1 C
20.02.2012 16:07 4,9 C 9,0 C 2,3 C 48 % 1032 hPa 0,0 l/m 2,3 m/s (2 Bft) SW67.5 215 5 min 34,6 klux -5,2 C 3,3 C
20.02.2012 16:12 4,9 C 7,8 C 2,1 C 48 % 1032 hPa 0,0 l/m 4,7 m/s (3 Bft) W-SW45 250 5 min 30,9 klux -5,2 C -2,0 C
20.02.2012 16:17 4,5 C 7,3 C 1,7 C 46 % 1032 hPa 0,0 l/m 3,3 m/s (2 Bft) W-SW45 250 5 min 29,5 klux -6,1 C 0,2 C
20.02.2012 16:22 4,3 C 6,5 C 1,6 C 47 % 1032 hPa 0,0 l/m 3,5 m/s (3 Bft) W-SW22.5 240 5 min 27,2 klux -6,0 C -0,4 C
20.02.2012 16:27 4,1 C 6,0 C 1,6 C 47 % 1032 hPa 0,0 l/m 4,2 m/s (3 Bft) W-SW45 245 5 min 27,3 klux -6,2 C -2,1 C
20.02.2012 16:32 3,7 C 6,0 C 1,6 C 47 % 1032 hPa 0,0 l/m 3,8 m/s (3 Bft) W-SW45 245 5 min 27,2 klux -6,5 C -1,7 C
20.02.2012 16:37 3,5 C 5,3 C 1,7 C 48 % 1032 hPa 0,0 l/m 3,6 m/s (3 Bft) W-SW22.5 240 5 min 24,3 klux -6,5 C -1,7 C
20.02.2012 16:42 3,4 C 4,8 C 1,5 C 48 % 1032 hPa 0,0 l/m 3,9 m/s (3 Bft) W-SW45 250 5 min 22,1 klux -6,5 C -2,4 C
20.02.2012 16:47 3,1 C 4,7 C 1,0 C 49 % 1032 hPa 0,0 l/m 3,9 m/s (3 Bft) W-SW45 250 5 min 11,7 klux -6,6 C -2,7 C
20.02.2012 16:52 2,5 C 4,3 C 0,7 C 50 % 1032 hPa 0,0 l/m 2,9 m/s (2 Bft) W-SW22.5 240 5 min 15,9 klux -6,8 C -0,9 C
20.02.2012 16:57 2,4 C 3,9 C 0,6 C 50 % 1032 hPa 0,0 l/m 3,6 m/s (3 Bft) W-SW45 255 5 min 13,8 klux -6,9 C -2,8 C
20.02.2012 17:02 2,1 C 3,7 C 0,5 C 50 % 1032 hPa 0,0 l/m 3,3 m/s (2 Bft) W22.5 260 5 min 16,3 klux -7,2 C -2,5 C
20.02.2012 17:07 2,0 C 3,6 C 0,5 C 51 % 1032 hPa 0,0 l/m 3,4 m/s (3 Bft) W-SW22.5 240 5 min 12,5 klux -7,1 C -2,9 C
20.02.2012 17:12 1,8 C 3,4 C 0,4 C 53 % 1032 hPa 0,0 l/m 2,3 m/s (2 Bft) W-SW22.5 240 5 min 11,2 klux -6,7 C -0,1 C
20.02.2012 17:17 1,8 C 3,6 C 0,2 C 53 % 1032 hPa 0,0 l/m 3,7 m/s (3 Bft) W-SW45 255 5 min 8,78 klux -6,7 C -3,8 C
20.02.2012 17:22 1,5 C 3,7 C 0,0 C 53 % 1032 hPa 0,0 l/m 3,9 m/s (3 Bft) W22.5 270 0 min 4,61 klux -7,0 C -4,6 C
20.02.2012 17:27 1,2 C 3,3 C -0,1 C 54 % 1032 hPa 0,0 l/m 2,0 m/s (2 Bft) W-SW22.5 245 5 min 3,92 klux -7,1 C 0,5 C
20.02.2012 17:32 1,1 C 2,9 C -0,3 C 54 % 1032 hPa 0,0 l/m 2,4 m/s (2 Bft) W-SW22.5 250 5 min 3,28 klux -7,1 C -1,0 C
20.02.2012 17:37 1,0 C 2,5 C -0,4 C 55 % 1032 hPa 0,0 l/m 2,0 m/s (2 Bft) W-SW22.5 240 5 min 2,26 klux -7,0 C 0,3 C
20.02.2012 17:42 0,7 C 2,3 C -0,5 C 56 % 1032 hPa 0,0 l/m 2,3 m/s (2 Bft) W-SW22.5 250 0 min 1,55 klux -7,1 C -1,1 C
20.02.2012 17:47 0,6 C 2,1 C -0,7 C 56 % 1032 hPa 0,0 l/m 3,2 m/s (2 Bft) W-SW 245 0 min 1,14 klux -7,1 C -3,9 C
20.02.2012 17:52 0,4 C 1,8 C -0,9 C 57 % 1032 hPa 0,0 l/m 1,6 m/s (2 Bft) W22.5 275 0 min 674 lux -7,1 C 0,4 C
20.02.2012 17:57 0,2 C 1,6 C -0,9 C 57 % 1032 hPa 0,0 l/m 1,1 m/s (1 Bft) SW 235 0 min 430 lux -7,3 C 0,2 C
20.02.2012 18:02 0,1 C 1,4 C -1,2 C 57 % 1032 hPa 0,0 l/m 0,3 m/s (1 Bft) SW 235 0 min 217 lux -7,4 C 0,1 C
20.02.2012 18:07 -0,1 C 1,2 C -1,4 C 57 % 1032 hPa 0,0 l/m 0,3 m/s (1 Bft) SW 235 0 min 112 lux -7,6 C -0,1 C
20.02.2012 18:12 -0,3 C 1,1 C -1,7 C 57 % 1032 hPa 0,0 l/m 0,0 m/s (0 Bft) SW 235 0 min 44 lux -7,8 C -0,3 C
20.02.2012 18:17 -0,5 C 0,8 C -1,9 C 57 % 1032 hPa 0,0 l/m 0,0 m/s (0 Bft) SW 235 0 min 30 lux -7,9 C -0,5 C
20.02.2012 18:22 -0,6 C 0,6 C -1,8 C 57 % 1032 hPa 0,0 l/m 0,0 m/s (0 Bft) SW 235 0 min 16 lux -8,0 C -0,6 C
20.02.2012 18:27 -0,9 C 0,4 C -2,0 C 57 % 1032 hPa 0,0 l/m 0,0 m/s (0 Bft) SW 235 0 min 8 lux -8,3 C -0,9 C
20.02.2012 18:32 -1,2 C 0,2 C -2,1 C 57 % 1032 hPa 0,0 l/m 0,0 m/s (0 Bft) SW 235 0 min 1 lux -8,6 C -1,2 C
20.02.2012 18:37 -1,3 C 0,0 C -2,2 C 57 % 1032 hPa 0,0 l/m 0,0 m/s (0 Bft) SW 235 0 min 0 lux -8,7 C -1,3 C
20.02.2012 18:42 -1,5 C -0,2 C -2,3 C 57 % 1032 hPa 0,0 l/m 0,0 m/s (0 Bft) SW 235 0 min 0 lux -8,9 C -1,5 C
20.02.2012 18:47 -1,6 C -0,3 C -2,4 C 58 % 1032 hPa 0,0 l/m 0,0 m/s (0 Bft) SW 235 0 min 0 lux -8,8 C -1,6 C
20.02.2012 18:52 -1,7 C -0,5 C -2,6 C 58 % 1032 hPa 0,0 l/m 0,0 m/s (0 Bft) SW 235 0 min 0 lux -8,9 C -1,7 C
20.02.2012 18:57 -1,8 C -0,7 C -2,7 C 58 % 1032 hPa 0,0 l/m 0,0 m/s (0 Bft) SW 235 0 min 0 lux -8,9 C -1,8 C
20.02.2012 19:02 -1,9 C -0,8 C -2,2 C 59 % 1032 hPa 0,0 l/m 0,0 m/s (0 Bft) SW 235 0 min 0 lux -8,8 C -1,9 C
20.02.2012 19:07 -2,0 C -0,9 C -2,4 C 59 % 1032 hPa 0,0 l/m 0,0 m/s (0 Bft) SW 235 0 min 0 lux -8,9 C -2,0 C
20.02.2012 19:12 -2,0 C -1,1 C -2,5 C 59 % 1032 hPa 0,0 l/m 0,0 m/s (0 Bft) SW 235 0 min 0 lux -8,9 C -2,0 C
20.02.2012 19:17 -2,1 C -1,2 C -2,5 C 59 % 1032 hPa 0,0 l/m 0,0 m/s (0 Bft) SW 235 0 min 0 lux -9,0 C -2,1 C
20.02.2012 19:22 -2,2 C -1,2 C -2,3 C 59 % 1032 hPa 0,0 l/m 0,0 m/s (0 Bft) SW 235 0 min 0 lux -9,1 C -2,2 C
20.02.2012 19:26 -2,3 C -1,3 C -2,5 C 59 % 1032 hPa 0,0 l/m 0,0 m/s (0 Bft) SW 235 0 min 0 lux -9,2 C -2,3 C
20.02.2012 19:31 -2,4 C -1,4 C -2,3 C 60 % 1032 hPa 0,0 l/m 0,0 m/s (0 Bft) SW 235 0 min 0 lux -9,1 C -2,4 C
20.02.2012 19:37 -2,5 C -1,5 C -2,4 C 60 % 1032 hPa 0,0 l/m 0,0 m/s (0 Bft) SW 235 0 min 0 lux -9,2 C -2,5 C
20.02.2012 19:42 -2,5 C -1,5 C -2,5 C 60 % 1032 hPa 0,0 l/m 0,0 m/s (0 Bft) SW 235 0 min 0 lux -9,2 C -2,5 C
20.02.2012 19:47 -2,5 C -1,6 C -2,6 C 60 % 1032 hPa 0,0 l/m 0,0 m/s (0 Bft) SW 235 0 min 0 lux -9,2 C -2,5 C
20.02.2012 19:52 -2,6 C -1,7 C -2,7 C 60 % 1032 hPa 0,0 l/m 0,0 m/s (0 Bft) SW 235 0 min 0 lux -9,3 C -2,6 C
20.02.2012 19:56 -2,7 C -1,8 C -2,6 C 60 % 1032 hPa 0,0 l/m 0,0 m/s (0 Bft) SW 235 0 min 0 lux -9,4 C -2,7 C
20.02.2012 20:01 -2,7 C -1,9 C -2,5 C 60 % 1032 hPa 0,0 l/m 0,0 m/s (0 Bft) SW 235 0 min 0 lux -9,4 C -2,7 C
20.02.2012 20:06 -2,7 C -1,9 C -2,4 C 60 % 1032 hPa 0,0 l/m 0,0 m/s (0 Bft) SW 235 0 min 0 lux -9,4 C -2,7 C
20.02.2012 20:11 -2,9 C -2,0 C -2,7 C 61 % 1032 hPa 0,0 l/m 0,0 m/s (0 Bft) SW 235 0 min 0 lux -9,3 C -2,9 C
20.02.2012 20:17 -2,9 C -2,1 C -2,5 C 61 % 1032 hPa 0,0 l/m 0,0 m/s (0 Bft) SW 235 0 min 0 lux -9,3 C -2,9 C
20.02.2012 20:22 -2,9 C -2,1 C -2,6 C 61 % 1032 hPa 0,0 l/m 0,0 m/s (0 Bft) SW 235 0 min 0 lux -9,3 C -2,9 C
20.02.2012 20:27 -3,0 C -2,2 C -2,6 C 61 % 1032 hPa 0,0 l/m 0,0 m/s (0 Bft) SW 235 0 min 0 lux -9,4 C -3,0 C
20.02.2012 20:27 -3,0 C -2,2 C -2,6 C 61 % 1032 hPa 0,0 l/m 0,0 m/s (0 Bft) SW 235 0 min 0 lux -9,4 C -3,0 C
20.02.2012 20:32 -3,0 C -2,3 C -2,7 C 61 % 1032 hPa 0,0 l/m 0,0 m/s (0 Bft) SW 235 0 min 0 lux -9,4 C -3,0 C
20.02.2012 20:37 -3,0 C -2,3 C -2,7 C 61 % 1032 hPa 0,0 l/m 0,0 m/s (0 Bft) SW 235 0 min 0 lux -9,4 C -3,0 C
20.02.2012 20:42 -3,1 C -2,4 C -2,6 C 61 % 1032 hPa 0,0 l/m 0,0 m/s (0 Bft) SW 235 0 min 0 lux -9,5 C -3,1 C
20.02.2012 20:47 -3,1 C -2,4 C -2,8 C 61 % 1032 hPa 0,0 l/m 0,0 m/s (0 Bft) SW 235 0 min 0 lux -9,5 C -3,1 C
20.02.2012 20:52 -3,1 C -2,4 C -2,6 C 61 % 1032 hPa 0,0 l/m 0,0 m/s (0 Bft) SW 235 0 min 0 lux -9,5 C -3,1 C
20.02.2012 20:57 -3,2 C -2,5 C -2,8 C 62 % 1032 hPa 0,0 l/m 0,0 m/s (0 Bft) SW 235 0 min 0 lux -9,4 C -3,2 C
20.02.2012 21:02 -3,2 C -2,5 C -2,8 C 62 % 1032 hPa 0,0 l/m 0,0 m/s (0 Bft) SW 235 0 min 0 lux -9,4 C -3,2 C
20.02.2012 21:07 -3,2 C -2,6 C -2,8 C 62 % 1032 hPa 0,0 l/m 0,0 m/s (0 Bft) SW 235 0 min 0 lux -9,4 C -3,2 C
20.02.2012 21:12 -3,3 C -2,6 C -3,0 C 62 % 1032 hPa 0,0 l/m 0,0 m/s (0 Bft) SW 235 0 min 0 lux -9,5 C -3,3 C
20.02.2012 21:17 -3,3 C -2,7 C -2,7 C 62 % 1032 hPa 0,0 l/m 0,0 m/s (0 Bft) SW 235 0 min 0 lux -9,5 C -3,3 C
20.02.2012 21:22 -3,4 C -2,7 C -2,9 C 62 % 1032 hPa 0,0 l/m 0,0 m/s (0 Bft) SW 235 0 min 0 lux -9,6 C -3,4 C
20.02.2012 21:27 -3,4 C -2,7 C -2,9 C 62 % 1032 hPa 0,0 l/m 0,0 m/s (0 Bft) SW 235 0 min 0 lux -9,6 C -3,4 C
20.02.2012 21:32 -3,5 C -2,7 C -3,1 C 62 % 1032 hPa 0,0 l/m 0,0 m/s (0 Bft) SW 235 0 min 0 lux -9,7 C -3,5 C
20.02.2012 21:37 -3,5 C -2,8 C -3,2 C 62 % 1032 hPa 0,0 l/m 0,0 m/s (0 Bft) SW 235 0 min 0 lux -9,7 C -3,5 C
20.02.2012 21:42 -3,6 C -2,8 C -3,1 C 62 % 1032 hPa 0,0 l/m 0,0 m/s (0 Bft) SW 235 0 min 0 lux -9,8 C -3,6 C
20.02.2012 21:47 -3,6 C -2,9 C -3,2 C 62 % 1032 hPa 0,0 l/m 0,0 m/s (0 Bft) SW 235 0 min 0 lux -9,8 C -3,6 C
20.02.2012 21:52 -3,6 C -2,9 C -3,1 C 62 % 1032 hPa 0,0 l/m 0,0 m/s (0 Bft) SW 235 0 min 0 lux -9,8 C -3,6 C
20.02.2012 21:57 -3,7 C -3,0 C -3,4 C 62 % 1032 hPa 0,0 l/m 0,0 m/s (0 Bft) SW 235 0 min 0 lux -9,9 C -3,7 C
20.02.2012 22:02 -3,7 C -3,0 C -3,2 C 62 % 1032 hPa 0,0 l/m 0,0 m/s (0 Bft) SW 235 0 min 0 lux -9,9 C -3,7 C
20.02.2012 22:07 -3,8 C -3,1 C -3,1 C 63 % 1032 hPa 0,0 l/m 0,0 m/s (0 Bft) SW 235 0 min 0 lux -9,8 C -3,8 C
20.02.2012 22:12 -3,8 C -3,1 C -3,1 C 63 % 1032 hPa 0,0 l/m 0,0 m/s (0 Bft) SW 235 0 min 0 lux -9,8 C -3,8 C
20.02.2012 22:17 -3,9 C -3,1 C -3,4 C 63 % 1032 hPa 0,0 l/m 0,0 m/s (0 Bft) SW 235 0 min 0 lux -9,9 C -3,9 C
20.02.2012 22:22 -3,9 C -3,2 C -3,3 C 63 % 1032 hPa 0,0 l/m 0,0 m/s (0 Bft) SW 235 0 min 0 lux -9,9 C -3,9 C
20.02.2012 22:27 -4,0 C -3,3 C -3,4 C 63 % 1032 hPa 0,0 l/m 0,0 m/s (0 Bft) SW 235 0 min 0 lux -10,0 C -4,0 C
20.02.2012 22:32 -4,0 C -3,3 C -3,5 C 63 % 1032 hPa 0,0 l/m 0,0 m/s (0 Bft) SW 235 0 min 0 lux -10,0 C -4,0 C
20.02.2012 22:37 -4,0 C -3,4 C -3,5 C 63 % 1032 hPa 0,0 l/m 0,0 m/s (0 Bft) SW 235 0 min 0 lux -10,0 C -4,0 C
20.02.2012 22:42 -4,0 C -3,5 C -3,5 C 63 % 1032 hPa 0,0 l/m 0,0 m/s (0 Bft) SW 235 0 min 0 lux -10,0 C -4,0 C
20.02.2012 22:47 -4,1 C -3,5 C -3,4 C 63 % 1032 hPa 0,0 l/m 0,0 m/s (0 Bft) SW 235 0 min 0 lux -10,1 C -4,1 C
20.02.2012 22:52 -4,1 C -3,5 C -3,5 C 63 % 1032 hPa 0,0 l/m 0,0 m/s (0 Bft) SW 235 0 min 0 lux -10,1 C -4,1 C
20.02.2012 22:57 -4,2 C -3,5 C -3,6 C 63 % 1032 hPa 0,0 l/m 0,0 m/s (0 Bft) SW 235 0 min 0 lux -10,2 C -4,2 C
20.02.2012 23:02 -4,2 C -3,6 C -3,7 C 63 % 1032 hPa 0,0 l/m 0,0 m/s (0 Bft) SW 235 0 min 0 lux -10,2 C -4,2 C
20.02.2012 23:06 -4,2 C -3,7 C -3,6 C 63 % 1032 hPa 0,0 l/m 0,0 m/s (0 Bft) SW 235 0 min 0 lux -10,2 C -4,2 C
20.02.2012 23:11 -4,3 C -3,6 C -3,6 C 63 % 1032 hPa 0,0 l/m 0,0 m/s (0 Bft) SW 235 0 min 0 lux -10,3 C -4,3 C
20.02.2012 23:16 -4,3 C -3,7 C -3,8 C 63 % 1032 hPa 0,0 l/m 0,0 m/s (0 Bft) SW 235 0 min 0 lux -10,3 C -4,3 C
20.02.2012 23:21 -4,4 C -3,7 C -3,8 C 63 % 1032 hPa 0,0 l/m 0,0 m/s (0 Bft) SW 235 0 min 0 lux -10,4 C -4,4 C
20.02.2012 23:26 -4,4 C -3,8 C -3,7 C 63 % 1032 hPa 0,0 l/m 0,0 m/s (0 Bft) SW 235 0 min 0 lux -10,4 C -4,4 C
20.02.2012 23:31 -4,4 C -3,8 C -3,6 C 63 % 1032 hPa 0,0 l/m 0,0 m/s (0 Bft) SW 235 0 min 0 lux -10,4 C -4,4 C
20.02.2012 23:36 -4,4 C -3,8 C -3,6 C 64 % 1032 hPa 0,0 l/m 0,0 m/s (0 Bft) SW 235 0 min 0 lux -10,2 C -4,4 C
20.02.2012 23:41 -4,4 C -3,9 C -3,6 C 64 % 1032 hPa 0,0 l/m 0,0 m/s (0 Bft) SW 235 0 min 0 lux -10,2 C -4,4 C
20.02.2012 23:46 -4,4 C -3,9 C -3,5 C 64 % 1032 hPa 0,0 l/m 0,0 m/s (0 Bft) SW 235 0 min 0 lux -10,2 C -4,4 C
20.02.2012 23:51 -4,4 C -3,9 C -3,8 C 64 % 1032 hPa 0,0 l/m 0,0 m/s (0 Bft) SW 235 0 min 0 lux -10,2 C -4,4 C
20.02.2012 23:56 -4,4 C -3,9 C -3,6 C 64 % 1032 hPa 0,0 l/m 0,0 m/s (0 Bft) SW 235 0 min 0 lux -10,2 C -4,4 C
_ Min-Zeit 23:21 23:41 23:16 15:57 00:02 - 04:12 - - - - 23:21 03:21
Minimum _ -4,4 C -3,9 C -3,8 C 46 % 1027 hPa - 0,0 m/s (0 Bft) - - - - -10,4 C -4,8 C
_ Max-Zeit 14:06 13:02 13:16 03:31 09:32 13:16 16:12 - - 09:17 13:06 10:27 13:06
Maximum _ 5,0 C 10,2 C 2,8 C 77 % 1033 hPa 0,4 l/m 4,7 m/s
W-SW (3 Bft)
- - 6 min 68,6 klux -1,5 C 4,9 C
Durchschnitt _ -0,4 C 0,9 C -1,1 C 66 % 1031 hPa #0,4 l/m 0,9 m/s (1 Bft) W-SW - #4:52 h 10,9 klux -6,2 C -1,2 C